N0RHA Weather Reports


time (UTC)temp
C
wind
direction
speed
KPH
gust
KPH
rain 1hr
cm
rain 24hr
cm
rain mn
cm
humidity
%
barometer
mb
20260906211903 31 134 6.4 9.7 0.00 0.00 0.00 35 1021.7
20260906211358 31 163 3.2 3.2 0.00 0.00 0.00 35 1021.4
20260906210853 31 126 6.4 11.3 0.00 0.00 0.00 36 1022.0
20260906210349 31 176 8.0 11.3 0.00 0.00 0.00 35 1021.9
20260906205843 31 174 6.4 9.7 0.00 0.00 0.00 35 1022.0
20260906205340 31 171 8.0 9.7 0.00 0.00 0.00 37 1022.0
20260906204835 31 120 4.8 8.0 0.00 0.00 0.00 36 1022.0
20260906204334 31 199 11.3 12.9 0.00 0.00 0.00 36 1022.1
20260906203833 31 210 4.8 4.8 0.00 0.00 0.00 35 1022.2
20260906203329 31 198 6.4 9.7 0.00 0.00 0.00 39 1022.1
20260906202826 31 176 4.8 8.0 0.00 0.00 0.00 40 1022.3
20260906202326 31 181 8.0 11.3 0.00 0.00 0.00 38 1022.2
20260906201820 31 152 8.0 9.7 0.00 0.00 0.00 39 1022.2
20260906201320 31 99 4.8 4.8 0.00 0.00 0.00 38 1022.2
20260906200816 31 162 4.8 4.8 0.00 0.00 0.00 36 1022.4
20260906200312 31 195 6.4 9.7 0.00 0.00 0.00 38 1022.2
20260906195807 31 96 6.4 11.3 0.00 0.00 0.00 39 1022.6
20260906195306 30 191 6.4 8.0 0.00 0.00 0.00 40 1022.7
20260906194758 30 137 4.8 8.0 0.00 0.00 0.00 41 1022.7
20260906194249 30 129 4.8 8.0 0.00 0.00 0.00 39 1022.7
20260906193749 31 175 3.2 8.0 0.00 0.00 0.00 42 1022.7
20260906193243 30 81 9.7 11.3 0.00 0.00 0.00 39 1022.9
20260906192740 31 117 6.4 9.7 0.00 0.00 0.00 40 1022.9
20260906192234 30 137 8.0 11.3 0.00 0.00 0.00 40 1022.9
20260906191733 30 109 3.2 3.2 0.00 0.00 0.00 39 1022.9
20260906191228 30 121 4.8 9.7 0.00 0.00 0.00 41 1023.3
20260906190728 30 140 3.2 4.8 0.00 0.00 0.00 41 1023.3
20260906190222 31 167 8.0 9.7 0.00 0.00 0.00 39 1023.2
20260906185721 30 103 4.8 4.8 0.00 0.00 0.00 41 1023.4
20260906185221 30 135 4.8 4.8 0.00 0.00 0.00 42 1023.4
20260906184715 30 161 4.8 4.8 0.00 0.00 0.00 40 1023.8
20260906184211 30 193 11.3 14.5 0.00 0.00 0.00 40 1023.5
20260906183707 30 199 8.0 9.7 0.00 0.00 0.00 42 1024.0
20260906183203 30 149 3.2 3.2 0.00 0.00 0.00 41 1023.9
20260906182702 30 114 12.9 16.1 0.00 0.00 0.00 40 1023.9
20260906182158 30 139 6.4 8.0 0.00 0.00 0.00 40 1023.8
20260906181653 30 158 8.0 11.3 0.00 0.00 0.00 41 1023.9
20260906181150 30 99 6.4 9.7 0.00 0.00 0.00 40 1024.0
20260906180650 30 64 4.8 8.0 0.00 0.00 0.00 41 1024.0
20260906180145 30 66 0.0 1.6 0.00 0.00 0.00 40 1024.5
20260906175643 29 104 1.6 3.2 0.00 0.00 0.00 38 1024.6
20260906175138 29 150 4.8 8.0 0.00 0.00 0.00 39 1024.7
20260906174636 29 105 4.8 8.0 0.00 0.00 0.00 39 1024.6
20260906174131 29 153 8.0 9.7 0.00 0.00 0.00 40 1024.6
20260906173626 29 129 3.2 3.2 0.00 0.00 0.00 41 1024.9
20260906173122 30 186 1.6 1.6 0.00 0.00 0.00 41 1024.8
20260906172621 29 158 4.8 8.0 0.00 0.00 0.00 41 1024.8
20260906172117 28 56 1.6 1.6 0.00 0.00 0.00 40 1025.1
20260906171616 29 166 1.6 3.2 0.00 0.00 0.00 40 1025.1
20260906171112 30 54 6.4 9.7 0.00 0.00 0.00 37 1024.8
20260906170609 29 21 3.2 3.2 0.00 0.00 0.00 38 1024.9
20260906170108 29 63 4.8 8.0 0.00 0.00 0.00 38 1025.1
20260906165604 28 55 0.0 1.6 0.00 0.00 0.00 41 1025.1
20260906165059 29 174 0.0 1.6 0.00 0.00 0.00 43 1025.2
20260906164558 27 177 3.2 3.2 0.00 0.00 0.00 40 1025.3
20260906164054 28 104 3.2 4.8 0.00 0.00 0.00 41 1025.3
20260906163549 28 46 4.8 8.0 0.00 0.00 0.00 40 1024.9
20260906163045 28 65 4.8 4.8 0.00 0.00 0.00 41 1024.9
20260906162542 28 96 3.2 3.2 0.00 0.00 0.00 40 1025.3
20260906162037 27 141 3.2 4.8 0.00 0.00 0.00 40 1025.2
20260906161532 27 53 3.2 3.2 0.00 0.00 0.00 42 1025.3
20260906161031 27 194 4.8 8.0 0.00 0.00 0.00 42 1025.3
20260906160531 27 46 1.6 1.6 0.00 0.00 0.00 42 1025.3
20260906160029 27 316 1.6 1.6 0.00 0.00 0.00 42 1025.2
20260906155526 27 74 3.2 3.2 0.00 0.00 0.00 41 1025.3
20260906155023 26 71 0.0 1.6 0.00 0.00 0.00 42 1024.9
20260906154518 26 179 4.8 4.8 0.00 0.00 0.00 43 1025.3
20260906154016 26 72 0.0 1.6 0.00 0.00 0.00 42 1025.1
20260906153515 26 347 3.2 4.8 0.00 0.00 0.00 41 1025.1
20260906153012 26 115 0.0 0.0 0.00 0.00 0.00 43 1025.1
20260906152511 26 128 0.0 0.0 0.00 0.00 0.00 43 1025.1
20260906152010 26 149 1.6 3.2 0.00 0.00 0.00 42 1025.3
20260906151506 26 188 1.6 3.2 0.00 0.00 0.00 44 1025.2
20260906151001 26 194 1.6 1.6 0.00 0.00 0.00 44 1025.2
20260906150456 26 139 1.6 3.2 0.00 0.00 0.00 43 1025.2
20260906145955 26 116 1.6 3.2 0.00 0.00 0.00 44 1025.2
20260906145450 25 181 3.2 3.2 0.00 0.00 0.00 45 1025.1
20260906144949 25 14 1.6 1.6 0.00 0.00 0.00 46 1025.1
20260906144444 24 134 0.0 1.6 0.00 0.00 0.00 48 1025.1
20260906143940 24 140 1.6 1.6 0.00 0.00 0.00 48 1025.2
20260906143435 23 179 0.0 1.6 0.00 0.00 0.00 51 1025.3
20260906142931 23 63 0.0 1.6 0.00 0.00 0.00 52 1025.2
20260906142431 23 96 0.0 0.0 0.00 0.00 0.00 49 1025.1
20260906141926 23 155 0.0 0.0 0.00 0.00 0.00 51 1025.1
20260906141426 23 83 1.6 1.6 0.00 0.00 0.00 51 1025.2
20260906140920 22 81 0.0 0.0 0.00 0.00 0.00 52 1024.9
20260906140415 22 87 0.0 1.6 0.00 0.00 0.00 54 1024.9
20260906135913 21 32 0.0 0.0 0.00 0.00 0.00 55 1024.9
20260906135412 20 323 1.6 1.6 0.00 0.00 0.00 58 1024.9
20260906134908 20 288 3.2 3.2 0.00 0.00 0.00 59 1024.8
20260906134403 20 342 4.8 8.0 0.00 0.00 0.00 60 1024.7
20260906133858 19 343 3.2 4.8 0.00 0.00 0.00 62 1024.7
20260906133354 19 304 3.2 3.2 0.00 0.00 0.00 66 1024.8
20260906132849 18 316 0.0 1.6 0.00 0.00 0.00 71 1024.7
20260906132344 17 309 3.2 3.2 0.00 0.00 0.00 73 1024.3
20260906131840 17 312 3.2 3.2 0.00 0.00 0.00 76 1024.5
20260906131335 16 305 3.2 3.2 0.00 0.00 0.00 78 1024.3
20260906130831 16 45 3.2 3.2 0.00 0.00 0.00 78 1024.0
20260906130330 16 39 1.6 1.6 0.00 0.00 0.00 78 1024.1
20260906125829 16 350 1.6 1.6 0.00 0.00 0.00 78 1024.5
20260906125326 16 340 1.6 1.6 0.00 0.00 0.00 76 1024.3
20260906124821 16 329 1.6 3.2 0.00 0.00 0.00 77 1024.3
20260906124318 16 323 4.8 4.8 0.00 0.00 0.00 77 1024.1
20260906123816 16 299 3.2 3.2 0.00 0.00 0.00 78 1024.3
20260906123312 16 331 3.2 3.2 0.00 0.00 0.00 78 1024.5
20260906122811 16 294 3.2 3.2 0.00 0.00 0.00 78 1024.5
20260906122306 16 308 3.2 3.2 0.00 0.00 0.00 77 1024.5
20260906121803 16 297 3.2 3.2 0.00 0.00 0.00 77 1024.1
20260906121259 16 288 4.8 4.8 0.00 0.00 0.00 77 1024.3
20260906120755 16 324 3.2 3.2 0.00 0.00 0.00 77 1024.2
20260906120251 16 349 3.2 3.2 0.00 0.00 0.00 77 1024.1
20260906115747 16 324 6.4 8.0 0.00 0.00 0.00 77 1024.0
20260906115242 16 328 6.4 8.0 0.00 0.00 0.00 77 1024.1
20260906114741 16 315 4.8 4.8 0.00 0.00 0.00 77 1024.3
20260906114236 16 335 6.4 8.0 0.00 0.00 0.00 76 1024.1
20260906113732 16 296 3.2 3.2 0.00 0.00 0.00 75 1024.2
20260906113231 16 320 3.2 3.2 0.00 0.00 0.00 76 1024.0
20260906112730 16 314 3.2 3.2 0.00 0.00 0.00 75 1024.0
20260906112227 16 311 3.2 3.2 0.00 0.00 0.00 75 1024.1
20260906111726 16 345 4.8 4.8 0.00 0.00 0.00 76 1023.9
20260906111221 16 318 4.8 4.8 0.00 0.00 0.00 76 1024.2
20260906110716 16 312 3.2 3.2 0.00 0.00 0.00 76 1024.1
20260906110212 16 317 0.0 0.0 0.00 0.00 0.00 75 1023.9
20260906105711 17 324 1.6 1.6 0.00 0.00 0.00 75 1024.3
20260906105208 17 357 0.0 0.0 0.00 0.00 0.00 74 1024.2
20260906104707 17 338 1.6 1.6 0.00 0.00 0.00 73 1024.2
20260906104206 17 309 0.0 0.0 0.00 0.00 0.00 73 1024.2
20260906103704 17 321 1.6 1.6 0.00 0.00 0.00 73 1024.0
20260906103159 17 328 3.2 3.2 0.00 0.00 0.00 73 1024.0
20260906102654 17 320 1.6 3.2 0.00 0.00 0.00 73 1023.8
20260906102154 17 309 3.2 3.2 0.00 0.00 0.00 72 1023.9
20260906101654 18 316 4.8 4.8 0.00 0.00 0.00 72 1023.8
20260906101149 18 306 3.2 3.2 0.00 0.00 0.00 71 1023.9
20260906100645 18 338 4.8 4.8 0.00 0.00 0.00 71 1023.8
20260906100145 18 336 4.8 4.8 0.00 0.00 0.00 71 1024.0
20260906095640 18 319 4.8 8.0 0.00 0.00 0.00 71 1024.0
20260906095135 18 351 4.8 8.0 0.00 0.00 0.00 71 1023.9
20260906094634 18 289 3.2 3.2 0.00 0.00 0.00 71 1024.1
20260906094130 18 312 4.8 8.0 0.00 0.00 0.00 71 1024.2
20260906093626 18 276 4.8 4.8 0.00 0.00 0.00 70 1024.0
20260906093126 18 341 6.4 8.0 0.00 0.00 0.00 71 1024.2
20260906092621 18 342 4.8 4.8 0.00 0.00 0.00 71 1023.9
20260906092116 18 307 3.2 3.2 0.00 0.00 0.00 71 1024.1
20260906091612 18 326 4.8 8.0 0.00 0.00 0.00 72 1024.0
20260906091109 17 318 4.8 4.8 0.00 0.00 0.00 73 1024.0
20260906090609 17 11 0.0 1.6 0.00 0.00 0.00 72 1024.2
20260906090108 17 311 3.2 3.2 0.00 0.00 0.00 72 1024.0
20260906085608 17 327 1.6 1.6 0.00 0.00 0.00 71 1024.1
20260906085102 17 309 3.2 3.2 0.00 0.00 0.00 72 1024.2
20260906084557 17 288 1.6 3.2 0.00 0.00 0.00 74 1024.2
20260906084055 16 305 4.8 4.8 0.00 0.00 0.00 75 1024.0
20260906083551 16 237 1.6 1.6 0.00 0.00 0.00 74 1024.1
20260906083051 17 184 1.6 1.6 0.00 0.00 0.00 74 1024.2
20260906082546 18 356 3.2 3.2 0.00 0.00 0.00 71 1024.1
20260906082042 18 325 6.4 8.0 0.00 0.00 0.00 71 1024.0
20260906081538 18 328 4.8 8.0 0.00 0.00 0.00 71 1023.9
20260906081034 18 327 3.2 4.8 0.00 0.00 0.00 71 1023.8
20260906080530 18 314 1.6 3.2 0.00 0.00 0.00 71 1024.0
20260906080026 18 8 1.6 3.2 0.00 0.00 0.00 69 1023.9
20260906075525 18 318 6.4 8.0 0.00 0.00 0.00 69 1023.9
20260906075020 18 309 6.4 8.0 0.00 0.00 0.00 70 1023.9
20260906074515 18 327 8.0 9.7 0.00 0.00 0.00 70 1024.0
20260906074013 18 307 8.0 9.7 0.00 0.00 0.00 70 1023.5
20260906073508 18 311 6.4 8.0 0.00 0.00 0.00 71 1023.8
20260906073005 18 322 3.2 3.2 0.00 0.00 0.00 70 1023.8
20260906072459 18 315 3.2 3.2 0.00 0.00 0.00 69 1023.9
20260906071955 18 342 4.8 8.0 0.00 0.00 0.00 69 1024.0
20260906071451 18 322 6.4 9.7 0.00 0.00 0.00 70 1023.9
20260906070946 18 334 4.8 4.8 0.00 0.00 0.00 70 1024.0
20260906070443 18 322 1.6 1.6 0.00 0.00 0.00 68 1023.9
20260906065938 19 351 3.2 3.2 0.00 0.00 0.00 68 1023.9
20260906065438 19 304 3.2 3.2 0.00 0.00 0.00 68 1023.9
20260906064933 19 299 3.2 4.8 0.00 0.00 0.00 68 1023.6
20260906064430 19 321 4.8 4.8 0.00 0.00 0.00 68 1023.8
20260906063930 19 321 3.2 3.2 0.00 0.00 0.00 68 1024.0
20260906063426 19 321 4.8 4.8 0.00 0.00 0.00 67 1024.1
20260906062920 19 292 3.2 3.2 0.00 0.00 0.00 67 1024.2
20260906062421 20 327 4.8 4.8 0.00 0.00 0.00 67 1024.0
20260906061916 20 337 1.6 3.2 0.00 0.00 0.00 66 1024.0
20260906061412 20 294 1.6 1.6 0.00 0.00 0.00 66 1024.1
20260906060912 20 320 3.2 3.2 0.00 0.00 0.00 67 1024.2
20260906060410 19 309 1.6 1.6 0.00 0.00 0.00 67 1024.2
20260906055906 20 323 1.6 1.6 0.00 0.00 0.00 67 1024.0
20260906055401 20 340 3.2 3.2 0.00 0.00 0.00 67 1024.2
20260906054856 19 327 0.0 0.0 0.00 0.00 0.00 67 1024.1
20260906054351 20 321 0.0 0.0 0.00 0.00 0.00 67 1024.0
20260906053847 20 321 3.2 3.2 0.00 0.00 0.00 66 1024.0
20260906053343 20 32 1.6 1.6 0.00 0.00 0.00 66 1024.0
20260906052838 20 290 1.6 1.6 0.00 0.00 0.00 67 1024.2
20260906052334 19 328 1.6 1.6 0.00 0.00 0.00 67 1024.3
20260906051831 20 5 3.2 3.2 0.00 0.00 0.00 66 1024.0
20260906051330 21 43 3.2 3.2 0.00 0.00 0.00 63 1024.3
20260906050826 21 332 1.6 1.6 0.00 0.00 0.00 62 1024.1
20260906050321 21 337 1.6 3.2 0.00 0.00 0.00 62 1023.9
20260906045820 20 314 1.6 1.6 0.00 0.00 0.00 64 1024.0
20260906045315 20 309 3.2 3.2 0.00 0.00 0.00 65 1024.2
20260906044811 20 3 4.8 4.8 0.00 0.00 0.00 64 1024.0
20260906044311 21 296 0.0 1.6 0.00 0.00 0.00 63 1024.1
20260906043807 21 272 0.0 0.0 0.00 0.00 0.00 62 1024.1
20260906043303 21 270 1.6 1.6 0.00 0.00 0.00 62 1023.9
20260906042803 22 233 0.0 0.0 0.00 0.00 0.00 60 1024.0
20260906042306 22 141 1.6 1.6 0.00 0.00 0.00 59 1024.1
20260906041758 22 216 4.8 4.8 0.00 0.00 0.00 59 1024.0
20260906041253 22 289 0.0 0.0 0.00 0.00 0.00 58 1024.0
20260906040748 23 38 1.6 1.6 0.00 0.00 0.00 57 1023.6
20260906040243 23 69 1.6 1.6 0.00 0.00 0.00 56 1023.9
20260906035738 23 319 4.8 4.8 0.00 0.00 0.00 58 1024.0
20260906035234 22 272 3.2 3.2 0.00 0.00 0.00 58 1023.8
20260906034734 22 270 1.6 3.2 0.00 0.00 0.00 60 1023.8
20260906034229 22 100 1.6 1.6 0.00 0.00 0.00 58 1023.8
20260906033725 22 63 1.6 1.6 0.00 0.00 0.00 57 1024.0
20260906033224 22 89 3.2 3.2 0.00 0.00 0.00 58 1023.8
20260906032721 22 59 4.8 8.0 0.00 0.00 0.00 58 1023.6
20260906032221 23 72 1.6 1.6 0.00 0.00 0.00 58 1023.5
20260906031716 23 51 3.2 3.2 0.00 0.00 0.00 58 1023.5
20260906031212 23 87 4.8 9.7 0.00 0.00 0.00 58 1023.5
20260906030711 23 69 1.6 1.6 0.00 0.00 0.00 57 1023.2
20260906030206 23 103 4.8 4.8 0.00 0.00 0.00 57 1023.2
20260906025706 23 74 1.6 4.8 0.00 0.00 0.00 56 1023.0
20260906025201 23 57 4.8 8.0 0.00 0.00 0.00 55 1022.9
20260906024659 24 77 3.2 8.0 0.00 0.00 0.00 54 1022.8
20260906024159 23 132 3.2 4.8 0.00 0.00 0.00 55 1022.4
20260906023655 24 70 6.4 8.0 0.00 0.00 0.00 55 1022.7
20260906023155 24 78 4.8 4.8 0.00 0.00 0.00 56 1022.4
20260906022650 24 71 4.8 4.8 0.00 0.00 0.00 55 1022.6
20260906022146 25 39 4.8 9.7 0.00 0.00 0.00 54 1022.4
20260906021641 25 88 8.0 14.5 0.00 0.00 0.00 53 1022.2
20260906021140 25 88 6.4 11.3 0.00 0.00 0.00 52 1022.2
20260906020635 25 65 9.7 11.3 0.00 0.00 0.00 52 1022.2
20260906020130 26 52 8.0 11.3 0.00 0.00 0.00 51 1021.7
20260906015630 26 94 14.5 16.1 0.00 0.00 0.00 50 1022.1
20260906015128 26 39 9.7 12.9 0.00 0.00 0.00 46 1021.9
20260906014623 26 95 4.8 9.7 0.00 0.00 0.00 37 1021.7
20260906014119 26 85 3.2 3.2 0.00 0.00 0.00 37 1021.6
20260906013614 27 54 1.6 1.6 0.00 0.00 0.00 37 1021.6
20260906013110 28 40 1.6 1.6 0.00 0.00 0.00 35 1021.6
20260906012604 28 78 3.2 4.8 0.00 0.00 0.00 33 1021.7
20260906012059 28 331 3.2 3.2 0.00 0.00 0.00 33 1021.6
20260906011555 28 282 1.6 1.6 0.00 0.00 0.00 33 1021.4
20260906011054 28 318 1.6 1.6 0.00 0.00 0.00 32 1021.5
20260906010550 29 300 1.6 1.6 0.00 0.00 0.00 32 1021.5
20260906010046 30 306 4.8 4.8 0.00 0.00 0.00 30 1021.6
20260906005545 30 326 4.8 4.8 0.00 0.00 0.00 30 1021.7
20260906005044 30 304 3.2 3.2 0.00 0.00 0.00 31 1021.7
20260906004544 30 302 4.8 4.8 0.00 0.00 0.00 29 1021.7
20260906004039 30 312 3.2 3.2 0.00 0.00 0.00 29 1022.0
20260906003534 30 310 1.6 1.6 0.00 0.00 0.00 29 1022.0
20260906003031 30 311 3.2 3.2 0.00 0.00 0.00 29 1021.9
20260906002525 30 331 3.2 3.2 0.00 0.00 0.00 29 1022.0
20260906002020 30 324 4.8 4.8 0.00 0.00 0.00 29 1021.9
20260906001516 30 301 1.6 3.2 0.00 0.00 0.00 30 1022.0
20260906001010 30 313 3.2 3.2 0.00 0.00 0.00 30 1021.6
20260906000506 30 318 4.8 4.8 0.00 0.00 0.00 30 1021.6
20260906000000 30 283 1.6 1.6 0.00 0.00 0.00 30 1021.6
20260905235500 30 287 1.6 1.6 0.00 0.00 0.00 30 1021.9
20260905234955 30 294 3.2 3.2 0.00 0.00 0.00 29 1021.6
20260905234451 30 10 1.6 1.6 0.00 0.00 0.00 30 1021.6
20260905233950 30 216 0.0 0.0 0.00 0.00 0.00 29 1021.6
20260905233446 30 241 0.0 0.0 0.00 0.00 0.00 32 1021.7
20260905232944 30 25 0.0 0.0 0.00 0.00 0.00 31 1021.9
20260905232441 30 154 4.8 4.8 0.00 0.00 0.00 29 1021.4
20260905231936 31 43 3.2 3.2 0.00 0.00 0.00 27 1021.7
20260905231432 31 292 9.7 12.9 0.00 0.00 0.00 27 1021.4
20260905230928 32 260 1.6 1.6 0.00 0.00 0.00 26 1021.6
20260905230427 32 92 0.0 0.0 0.00 0.00 0.00 27 1021.6
20260905225925 32 259 0.0 0.0 0.00 0.00 0.00 26 1021.6
20260905225420 32 314 3.2 3.2 0.00 0.00 0.00 27 1021.6
20260905224915 32 289 1.6 3.2 0.00 0.00 0.00 26 1021.5
20260905224411 32 298 4.8 8.0 0.00 0.00 0.00 26 1021.4
20260905223911 32 15 9.7 11.3 0.00 0.00 0.00 25 1021.4
20260905223409 33 313 8.0 9.7 0.00 0.00 0.00 26 1021.4
20260905222909 33 63 1.6 1.6 0.00 0.00 0.00 27 1021.6
20260905222408 32 282 4.8 8.0 0.00 0.00 0.00 26 1021.7
20260905221904 32 312 6.4 8.0 0.00 0.00 0.00 26 1021.9
20260905221401 31 306 9.7 11.3 0.00 0.00 0.00 27 1021.9
20260905220856 31 234 9.7 16.1 0.00 0.00 0.00 29 1022.0
20260905220352 31 332 4.8 8.0 0.00 0.00 0.00 27 1021.9
20260905215851 31 44 4.8 8.0 0.00 0.00 0.00 28 1021.9
20260905215347 31 312 3.2 3.2 0.00 0.00 0.00 28 1021.7
20260905214843 31 307 11.3 14.5 0.00 0.00 0.00 28 1022.0
20260905214338 31 335 4.8 4.8 0.00 0.00 0.00 28 1021.9
20260905213833 31 238 1.6 3.2 0.00 0.00 0.00 28 1021.9
20260905213330 32 334 3.2 4.8 0.00 0.00 0.00 27 1021.7
20260905212830 32 327 8.0 9.7 0.00 0.00 0.00 27 1021.9